[[{"header":{"parameterUnit":"m.s-1","parameterCategory":1,"la1":30.2991,"la2":30.254,"lo1":-89.0895,"lo2":-89.0444,"dy":0.0017,"dx":0.0017,"nx":28,"ny":28,"refTime":"2024-06-04T03:00:00:Z","depth":0,"parameterNumber":2,"parameterNumberName":"U-component_of_WINDS"},"data":[0,0,0,0,0,0,0,0,0,0,0,0,0,0,0,0,0,0,0,0,0,0,0,0,0,0,0,0,0,0,0,0,0,0,0,0,0,0,0,0,0,0,0,0,0,0,0,0,0,0,0,0,0,0,0,0,0,0,-0.6408,-0.6409,0,-0.6508,-0.6509,-0.651,-0.6553,-0.6552,-0.6552,-0.6552,-0.6656,-0.6659,-0.6662,0,0,0,0,0,0,0,0,0,0,0,0,0,-0.6259,-0.6261,-0.6408,-0.6409,-0.6411,-0.6508,-0.6509,-0.651,-0.6553,-0.6552,-0.6552,-0.6552,-0.6655,-0.6659,-0.6662,0,0,0,0,0,0,0,0,0,0,0,0,0,-0.6338,-0.6262,-0.6408,-0.6443,-0.6447,-0.6507,-0.6509,-0.6511,-0.6553,-0.6552,-0.6552,-0.6552,-0.6654,-0.6659,-0.6663,-0.6696,0,0,-0.6676,-0.6678,0,0,0,0,0,0,0,0,-0.6333,-0.6343,-0.6437,-0.6441,-0.6446,-0.6517,-0.6495,-0.6573,-0.6553,-0.6513,-0.6552,-0.6552,-0.6611,-0.6619,-0.6638,-0.6701,-0.6705,-0.6677,-0.668,-0.6681,-0.6683,0,0,0,0,0,0,0,-0.6327,-0.6339,-0.6448,-0.6438,-0.6444,-0.6456,-0.6467,-0.651,-0.6562,-0.6516,-0.652,-0.6531,-0.6613,-0.6634,-0.6641,-0.6707,-0.6677,-0.6681,-0.6683,-0.6685,-0.6804,-0.6805,0,0,0,0,0,0,-0.6316,-0.6334,-0.6444,-0.6451,-0.6387,-0.6459,-0.6471,-0.6495,-0.6562,-0.6572,-0.6531,-0.6532,-0.6626,-0.6635,-0.6645,-0.6689,-0.6681,-0.6686,-0.6688,-0.6804,-0.6804,-0.6805,0,0,0,0,0,0,-0.6312,-0.6325,-0.644,-0.6393,-0.6409,-0.6461,-0.6488,-0.6497,-0.6517,-0.6573,-0.6583,-0.6542,-0.6626,-0.6638,-0.6683,-0.6693,-0.6688,-0.6692,-0.6803,-0.6804,-0.6804,-0.6776,0,0,0,0,0,0,-0.6308,-0.6324,-0.6335,-0.6393,-0.6411,-0.6476,-0.6489,-0.6499,-0.6525,-0.6528,-0.6586,-0.6595,-0.6627,-0.6676,-0.6687,-0.6699,-0.6695,-0.6802,-0.6803,-0.6804,-0.6776,-0.6776,-0.6775,0,0,0,0,0,-0.6302,-0.6323,-0.6336,-0.6349,-0.6427,-0.6476,-0.6487,-0.6522,-0.6525,-0.6538,-0.6574,-0.6593,-0.669,-0.668,-0.6693,-0.6706,-0.6802,-0.6803,-0.6804,-0.6777,-0.6776,-0.6775,0,0,0,0,0,0,-0.6266,-0.6332,-0.6346,-0.6386,-0.6425,-0.6483,-0.6501,-0.652,-0.656,-0.6561,-0.6604,-0.6617,-0.6659,-0.6687,-0.6675,-0.6743,-0.6748,-0.6751,-0.6722,-0.6722,-0.6722,-0.6714,-0.6699,0,0,0,0,0,-0.6262,-0.6296,-0.6352,-0.6382,-0.6401,-0.6448,-0.647,-0.6495,-0.6537,-0.6554,-0.6593,-0.6635,-0.6675,-0.67,-0.674,-0.6781,-0.6795,-0.6797,-0.6796,-0.6795,-0.6798,-0.6824,-0.6826,-0.6808,-0.6808,-0.6808,0,0,-0.6255,-0.6296,-0.6314,-0.6376,-0.6409,-0.6444,-0.6461,-0.6497,-0.6524,-0.656,-0.6604,-0.6635,-0.6685,-0.6728,-0.6749,-0.6753,-0.6806,-0.6797,-0.6796,-0.6799,-0.6825,-0.6827,-0.6828,-0.6809,-0.6809,-0.6809,0,0,-0.6261,-0.6294,-0.6324,-0.6357,-0.6407,-0.6438,-0.6445,-0.6501,-0.6523,-0.6568,-0.6596,-0.663,-0.6697,-0.6732,-0.6758,-0.678,-0.68,-0.6792,-0.6789,-0.6814,-0.6815,-0.6816,-0.6825,-0.6828,-0.6795,-0.6795,-0.6795,0,-0.6246,-0.6299,-0.6337,-0.6372,-0.6399,-0.6433,-0.6464,-0.6495,-0.6556,-0.6575,-0.6578,-0.6665,-0.6701,-0.6754,-0.6759,-0.6779,-0.679,-0.6785,-0.6812,-0.6813,-0.6815,-0.6824,-0.6827,-0.6793,-0.6794,-0.6794,-0.6794,0,-0.628,-0.6316,-0.6334,-0.6392,-0.6421,-0.6454,-0.6498,-0.6524,-0.6546,-0.6578,-0.6625,-0.6669,-0.6719,-0.6734,-0.6756,-0.6791,-0.6792,-0.6803,-0.6809,-0.6815,-0.6824,-0.6828,-0.6792,-0.6792,-0.6792,-0.6793,0,0,-0.6263,-0.6342,-0.6348,-0.6376,-0.6435,-0.6464,-0.65,-0.6549,-0.6571,-0.6612,-0.6644,-0.6702,-0.6713,-0.6743,-0.677,-0.6792,-0.6808,-0.6801,-0.6802,-0.6801,-0.6851,-0.6842,-0.6845,-0.6821,-0.6822,-0.6823,-0.6847,0,-0.6277,-0.6341,-0.6377,-0.6426,-0.6462,-0.6496,-0.6528,-0.6568,-0.6599,-0.6635,-0.667,-0.671,-0.6721,-0.674,-0.6763,-0.68,-0.6818,-0.6799,-0.6853,-0.6854,-0.6839,-0.685,-0.684,-0.686,-0.685,-0.6851,-0.6851,0,-0.6301,-0.6342,-0.6395,-0.6452,-0.6468,-0.6495,-0.6544,-0.6577,-0.6625,-0.6646,-0.6681,-0.6708,-0.6749,-0.6752,-0.681,-0.6796,-0.6821,-0.6843,-0.6845,-0.6851,-0.6853,-0.6856,-0.6868,-0.6871,-0.6857,-0.6857,-0.6856,0,-0.6285,-0.6353,-0.6394,-0.6417,-0.6484,-0.6503,-0.6532,-0.6579,-0.6607,-0.665,-0.6669,-0.6716,-0.6742,-0.6779,-0.6819,-0.6818,-0.6874,-0.688,-0.6894,-0.6893,-0.6904,-0.6902,-0.6919,-0.6919,-0.6919,-0.6919,-0.6919,0,-0.6296,-0.6328,-0.6388,-0.6413,-0.645,-0.6492,-0.6528,-0.656,-0.6603,-0.6636,-0.6669,-0.67,-0.6751,-0.6789,-0.682,-0.6864,-0.6876,-0.6895,-0.6903,-0.6892,-0.689,-0.6908,-0.6908,-0.692,-0.6919,-0.6919,-0.6919,0,-0.6284,-0.6325,-0.6372,-0.6433,-0.6449,-0.6473,-0.6526,-0.6553,-0.6586,-0.6628,-0.664,-0.6693,-0.674,-0.6783,-0.6845,-0.6867,-0.6911,-0.6922,-0.6895,-0.6899,-0.6911,-0.6909,-0.694,-0.6947,-0.6942,-0.6942,-0.6942,0,-0.6288,-0.6313,-0.6377,-0.6401,-0.6429,-0.6468,-0.6497,-0.6541,-0.6569,-0.6627,-0.6647,-0.6696,-0.6737,-0.681,-0.6855,-0.6903,-0.6915,-0.6923,-0.6923,-0.6911,-0.6916,-0.6914,-0.6918,-0.6922,-0.6922,-0.6922,-0.6921,0,-0.6293,-0.6313,-0.6352,-0.6399,-0.6433,-0.6472,-0.6513,-0.6532,-0.6584,-0.6615,-0.6662,-0.6694,-0.6758,-0.6807,-0.6861,-0.6892,-0.6916,-0.6921,-0.6927,-0.6916,-0.69,-0.691,-0.6893,-0.692,-0.692,-0.692,-0.692,-0.6921,-0.629,-0.6314,-0.6363,-0.6406,-0.6442,-0.648,-0.6508,-0.6546,-0.6586,-0.6641,-0.6665,-0.6713,-0.6763,-0.6838,-0.6869,-0.6909,-0.6914,-0.6923,-0.6925,-0.6926,-0.6924,-0.6894,-0.6919,-0.6919,-0.6919,-0.6919,-0.6919,0,-0.6296,-0.633,-0.6369,-0.6426,-0.6461,-0.648,-0.6527,-0.6555,-0.6597,-0.6641,-0.6681,-0.6737,-0.6785,-0.6834,-0.6885,-0.6908,-0.692,-0.692,-0.6919,-0.6926,-0.6916,-0.6906,-0.6909,-0.6909,-0.6909,-0.6909,-0.6909,-0.6909,-0.6304,-0.6346,-0.6372,-0.6434,-0.6468,-0.6515,-0.6541,-0.6577,-0.6612,-0.6673,-0.6713,-0.6744,-0.6791,-0.6846,-0.6892,-0.6905,-0.6923,-0.692,-0.6936,-0.6926,-0.6926,-0.6927,-0.6918,-0.6923,-0.6923,-0.6943,-0.6943,-0.6943]},{"header":{"parameterUnit":"m.s-1","parameterCategory":1,"la1":30.2991,"la2":30.254,"lo1":-89.0895,"lo2":-89.0444,"dy":0.0017,"dx":0.0017,"nx":28,"ny":28,"refTime":"2024-06-04T03:00:00:Z","depth":0,"parameterNumber":3,"parameterNumberName":"V-component_of_WINDS"},"data":[0,0,0,0,0,0,0,0,0,0,0,0,0,0,0,0,0,0,0,0,0,0,0,0,0,0,0,0,0,0,0,0,0,0,0,0,0,0,0,0,0,0,0,0,0,0,0,0,0,0,0,0,0,0,0,0,0,0,5.8736,5.8735,0,5.8676,5.8675,5.8675,5.855,5.8547,5.8545,5.8542,5.8484,5.8485,5.8486,0,0,0,0,0,0,0,0,0,0,0,0,0,5.8745,5.8746,5.8736,5.8735,5.8734,5.8676,5.8675,5.8674,5.855,5.8547,5.8544,5.8541,5.8484,5.8485,5.8486,0,0,0,0,0,0,0,0,0,0,0,0,0,5.8719,5.8746,5.8736,5.8665,5.8658,5.8676,5.8675,5.8674,5.8551,5.8547,5.8543,5.854,5.8484,5.8485,5.8486,5.8569,0,0,5.849,5.849,0,0,0,0,0,0,0,0,5.8721,5.8719,5.8676,5.867,5.8662,5.8616,5.8657,5.8639,5.8552,5.8592,5.8542,5.8538,5.8531,5.8528,5.8526,5.8566,5.8563,5.849,5.849,5.8491,5.8491,0,0,0,0,0,0,0,5.8723,5.8721,5.8712,5.8676,5.8667,5.8637,5.863,5.8653,5.8584,5.8588,5.8579,5.8573,5.8527,5.8525,5.8523,5.8563,5.849,5.8491,5.8491,5.8492,5.8667,5.8671,0,0,0,0,0,0,5.8734,5.8723,5.8714,5.871,5.8683,5.864,5.8631,5.8635,5.8583,5.8571,5.8577,5.8568,5.8525,5.8522,5.8521,5.8613,5.8491,5.8492,5.8493,5.8663,5.8668,5.8672,0,0,0,0,0,0,5.8735,5.8735,5.8716,5.8714,5.8709,5.8644,5.8649,5.8636,5.8633,5.8574,5.8562,5.8587,5.8521,5.8519,5.8557,5.8609,5.8492,5.8494,5.8658,5.8664,5.867,5.8799,0,0,0,0,0,0,5.8736,5.8736,5.8766,5.8716,5.871,5.8754,5.8652,5.8637,5.8636,5.8623,5.8581,5.857,5.8518,5.8556,5.8558,5.8609,5.8494,5.8653,5.8661,5.8668,5.879,5.8809,5.8825,0,0,0,0,0,5.8737,5.8805,5.8768,5.8768,5.8746,5.8757,5.8754,5.8692,5.864,5.867,5.8632,5.8571,5.8604,5.8561,5.8563,5.8614,5.865,5.8659,5.8667,5.8782,5.8805,5.8825,0,0,0,0,0,0,5.8864,5.8798,5.8755,5.881,5.879,5.8736,5.8771,5.8719,5.8714,5.8702,5.8627,5.8619,5.8667,5.8644,5.8598,5.8691,5.8617,5.8627,5.8704,5.8725,5.8742,5.8746,5.8495,0,0,0,0,0,5.8899,5.8912,5.8853,5.8907,5.8899,5.8838,5.884,5.8794,5.8771,5.8762,5.8727,5.8707,5.8712,5.8718,5.872,5.8787,5.8775,5.8823,5.8841,5.8855,5.8864,5.8897,5.8917,5.8701,5.8701,5.8701,0,0,5.897,5.8935,5.8948,5.8932,5.8911,5.8927,5.8831,5.8852,5.8864,5.8765,5.8798,5.8772,5.8746,5.8798,5.882,5.8781,5.8921,5.8866,5.8879,5.8879,5.8908,5.8928,5.8947,5.8707,5.8706,5.8705,0,0,5.9108,5.9083,5.9125,5.9106,5.9075,5.9033,5.9044,5.8998,5.8976,5.9008,5.8934,5.8947,5.8959,5.8942,5.8935,5.9068,5.9011,5.9071,5.9161,5.9194,5.9211,5.9226,5.9272,5.929,5.908,5.908,5.9081,0,5.9201,5.922,5.9153,5.9178,5.9173,5.9085,5.9126,5.9112,5.9084,5.9083,5.904,5.9051,5.9027,5.9074,5.9107,5.9105,5.9114,5.9074,5.9214,5.9228,5.9241,5.9284,5.9302,5.9088,5.9087,5.9086,5.9085,0,5.9336,5.9351,5.9388,5.9362,5.9361,5.9395,5.9334,5.9341,5.9296,5.926,5.9294,5.9262,5.9255,5.9263,5.922,5.9304,5.9281,5.9228,5.9151,5.927,5.9309,5.9325,5.9098,5.9095,5.9093,5.9091,0,0,5.9551,5.9487,5.9502,5.9488,5.9448,5.9459,5.9489,5.9482,5.9489,5.9474,5.9497,5.9509,5.9459,5.9451,5.9405,5.9435,5.954,5.9377,5.9375,5.9407,5.963,5.9669,5.9689,5.9503,5.9506,5.9508,5.9632,0,5.9678,5.9724,5.9665,5.9724,5.9737,5.9653,5.968,5.9658,5.9625,5.9632,5.9596,5.9605,5.9539,5.9534,5.9559,5.9522,5.9583,5.9512,5.9523,5.9524,5.9531,5.971,5.9752,5.987,5.9647,5.9649,5.9651,0,5.9832,5.9822,5.9883,5.9839,5.9842,5.9866,5.9854,5.9862,5.9837,5.981,5.9802,5.9747,5.9774,5.9701,5.9737,5.969,5.9691,5.9674,5.9677,5.9674,5.9594,5.9711,5.9906,5.9923,5.9675,5.9673,5.9671,0,5.9981,5.9984,6.002,6.0012,5.9961,5.998,5.996,5.993,5.993,5.992,5.9919,5.9913,5.991,5.9907,5.9852,5.9804,5.9894,5.9817,5.9873,5.9875,5.9895,5.9894,6.0091,5.9899,5.9898,5.9898,5.9898,0,6.0129,6.0169,6.0086,6.0108,6.0151,6.0083,6.0127,6.0099,6.0073,6.0089,6.0017,6.0034,5.9961,5.9969,5.9927,5.9962,5.9962,5.9942,5.9929,5.9947,5.995,5.9946,5.9936,5.9903,5.9902,5.9901,5.99,0,6.0302,6.0248,6.0282,6.0231,6.0219,6.0253,6.021,6.0228,6.0191,6.0212,6.0213,6.0154,6.0161,6.0106,6.0103,6.0074,6.0129,6.0104,6.0137,6.0129,6.0187,6.0182,6.0388,6.0411,6.0206,6.0208,6.0209,0,6.0398,6.0427,6.0379,6.0384,6.0367,6.0376,6.0375,6.031,6.0311,6.0284,6.0307,6.0307,6.0304,6.0318,6.0276,6.0273,6.0246,6.0318,6.0245,6.0261,6.0245,6.0244,6.0246,6.0333,6.0336,6.0338,6.034,0,6.0575,6.0547,6.0547,6.0539,6.0539,6.0529,6.0515,6.0523,6.0452,6.0458,6.0463,6.0461,6.0457,6.0458,6.0447,6.0427,6.0372,6.0363,6.0376,6.0393,6.0411,6.0401,6.0178,6.0359,6.0357,6.0355,6.0354,6.0353,6.0712,6.0733,6.0702,6.0705,6.0687,6.0676,6.069,6.0655,6.0658,6.0648,6.061,6.0623,6.0596,6.0575,6.056,6.0569,6.0534,6.0553,6.0557,6.0562,6.0572,6.0411,6.0567,6.0566,6.0566,6.0565,6.0565,0,6.0884,6.086,6.0863,6.0845,6.0847,6.0795,6.0776,6.0782,6.0793,6.0773,6.0771,6.0777,6.0778,6.0736,6.0732,6.0747,6.0722,6.0748,6.0745,6.0742,6.0604,6.0593,6.0768,6.0768,6.0768,6.0768,6.0768,6.0768,6.0973,6.1006,6.0975,6.0998,6.0974,6.0984,6.0978,6.0967,6.0951,6.096,6.096,6.0933,6.0904,6.0897,6.0896,6.0883,6.0885,6.0919,6.0899,6.0771,6.0751,6.0732,6.0721,6.0921,6.0921,6.1034,6.1035,6.1036]}]]